Location: Newark
(44.3248°N, 23.7839°E)
Time: 05:16:26
(UTC+00:00)

FO-29 - Pass Details

Date: 03 May 2024
Orbit: 801 x 1320 km, 98.6° (Epoch: 28 May)

Event Time Altitude Azimuth Distance (km) Brightness Sun altitude
Rises 00:53:18 0° 10° (N) 4,289 13.9 -20.7°
Reaches altitude 10° 00:56:02 10° 7° (N) 3,341 13.1 -20.4°
Maximum altitude 01:03:43 60° 291° (WNW) 1,491 10.3 -19.5°
Enters shadow 01:07:56 28° 223° (SW) 2,216 10.7 -19.0°
